^^
Meteo Knjazevac Station Historical Data
Daily Summary for May 27, 2021 Units:  Metric    English   Both
Daily Weekly Monthly Yearly Custom
  High: Low: Average:
Temperature: 2.4 °C 1.3 °C 1.7 °C
Dew Point: 2.3 °C 1.2 °C 1.5 °C
Humidity: 99% 99% 99%
Wind Speed: 9.7km/h 0km/h 3.9km/h
Wind Gust: 19.3km/h - -
Wind- - ESE
Pressure: 1015.8 hPa 1014.8 hPa -
Precipitation: 0 mm    
Historical Graphs
 
 
Tabular Data for May 27, 2021
Time Temperature Dew Point Pressure Wind Wind Speed Wind Gust Humidity Rainfall Rate (Hourly) solar Conditions
00:00 2.4 °C 2.3 °C 1015.8 hPa North 4.8 km/h 12.9 km/h 99% 0 mm 0 W/m2
00:10 2.3 °C 2.2 °C 1015.8 hPa North 4.8 km/h 16.1 km/h 99% 0 mm 0 W/m2
00:20 2.3 °C 2.2 °C 1015.8 hPa North 4.8 km/h 12.9 km/h 99% 0 mm 0 W/m2
00:30 2.2 °C 2.1 °C 1015.8 hPa NNE 8 km/h 19.3 km/h 99% 0 mm 0 W/m2
00:40 2.2 °C 2.1 °C 1015.8 hPa NNE 9.7 km/h 16.1 km/h 99% 0 mm 0 W/m2
00:50 2.1 °C 1.9 °C 1015.8 hPa North 9.7 km/h 16.1 km/h 99% 0 mm 0 W/m2
01:00 2 °C 1.8 °C 1015.5 hPa NNE 4.8 km/h 19.3 km/h 99% 0 mm 0 W/m2
01:10 2 °C 1.8 °C 1015.5 hPa NNE 8 km/h 16.1 km/h 99% 0 mm 0 W/m2
01:20 2 °C 1.8 °C 1015.5 hPa North 8 km/h 16.1 km/h 99% 0 mm 0 W/m2
01:30 1.9 °C 1.8 °C 1015.5 hPa NNE 4.8 km/h 12.9 km/h 99% 0 mm 0 W/m2
01:40 1.9 °C 1.8 °C 1015.5 hPa NNE 4.8 km/h 14.5 km/h 99% 0 mm 0 W/m2
01:50 1.9 °C 1.8 °C 1015.8 hPa NNE 4.8 km/h 12.9 km/h 99% 0 mm 0 W/m2
02:00 1.9 °C 1.8 °C 1015.8 hPa NNE 4.8 km/h 11.3 km/h 99% 0 mm 0 W/m2
02:10 1.8 °C 1.7 °C 1015.8 hPa North 4.8 km/h 14.5 km/h 99% 0 mm 0 W/m2
02:20 1.7 °C 1.6 °C 1015.8 hPa NNE 1.6 km/h 8 km/h 99% 0 mm 0 W/m2
02:30 1.7 °C 1.6 °C 1015.5 hPa North 1.6 km/h 11.3 km/h 99% 0 mm 0 W/m2
02:40 1.7 °C 1.6 °C 1015.5 hPa North 4.8 km/h 11.3 km/h 99% 0 mm 0 W/m2
02:50 1.7 °C 1.6 °C 1015.8 hPa NNE 3.2 km/h 9.7 km/h 99% 0 mm 0 W/m2
03:00 1.7 °C 1.6 °C 1015.5 hPa North 3.2 km/h 12.9 km/h 99% 0 mm 0 W/m2
03:10 1.7 °C 1.6 °C 1015.5 hPa North 3.2 km/h 9.7 km/h 99% 0 mm 0 W/m2
03:20 1.6 °C 1.4 °C 1015.5 hPa North 3.2 km/h 8 km/h 99% 0 mm 0 W/m2
03:30 1.6 °C 1.4 °C 1015.5 hPa North 1.6 km/h 8 km/h 99% 0 mm 0 W/m2
03:40 1.6 °C 1.4 °C 1015.5 hPa North 1.6 km/h 8 km/h 99% 0 mm 0 W/m2
03:50 1.5 °C 1.3 °C 1015.5 hPa North 3.2 km/h 8 km/h 99% 0 mm 0 W/m2
04:00 1.5 °C 1.3 °C 1015.1 hPa North 3.2 km/h 11.3 km/h 99% 0 mm 0 W/m2
04:10 1.5 °C 1.3 °C 1015.1 hPa NNE 4.8 km/h 14.5 km/h 99% 0 mm 0 W/m2
04:20 1.5 °C 1.3 °C 1015.1 hPa NNE 3.2 km/h 9.7 km/h 99% 0 mm 0 W/m2
04:30 1.4 °C 1.3 °C 1015.1 hPa North 3.2 km/h 16.1 km/h 99% 0 mm 0 W/m2
04:40 1.4 °C 1.3 °C 1015.1 hPa North 4.8 km/h 9.7 km/h 99% 0 mm 0 W/m2
04:50 1.4 °C 1.3 °C 1015.1 hPa NNE 3.2 km/h 9.7 km/h 99% 0 mm 0 W/m2
05:00 1.4 °C 1.3 °C 1015.1 hPa North 3.2 km/h 9.7 km/h 99% 0 mm 0 W/m2
05:10 1.4 °C 1.3 °C 1015.1 hPa North 3.2 km/h 12.9 km/h 99% 0 mm 0 W/m2
05:20 1.4 °C 1.3 °C 1015.1 hPa North 3.2 km/h 9.7 km/h 99% 0 mm 0 W/m2
05:30 1.4 °C 1.3 °C 1015.1 hPa NNE 3.2 km/h 9.7 km/h 99% 0 mm 0 W/m2
05:40 1.4 °C 1.3 °C 1015.1 hPa Calm   9.7 km/h 99% 0 mm 0 W/m2
05:50 1.4 °C 1.3 °C 1014.8 hPa North 4.8 km/h 8 km/h 99% 0 mm 0 W/m2
06:00 1.3 °C 1.2 °C 1015.1 hPa North 1.6 km/h 11.3 km/h 99% 0 mm 0 W/m2
06:10 1.3 °C 1.2 °C 1015.1 hPa North 3.2 km/h 6.4 km/h 99% 0 mm 0 W/m2
06:20 1.3 °C 1.2 °C 1015.1 hPa North 3.2 km/h 8 km/h 99% 0 mm 0 W/m2
06:30 1.3 °C 1.2 °C 1015.1 hPa North 3.2 km/h 8 km/h 99% 0 mm 0 W/m2
06:40 1.3 °C 1.2 °C 1015.1 hPa North 1.6 km/h 8 km/h 99% 0 mm 0 W/m2
06:50 1.3 °C 1.2 °C 1015.1 hPa Calm   8 km/h 99% 0 mm 0 W/m2
07:00 1.3 °C 1.2 °C 1015.1 hPa NNE 1.6 km/h 3.2 km/h 99% 0 mm 0 W/m2
Knjazevac, Serbia
Compliments of Weather Underground - 2 mb